Overview Statistics Trail Chart Weather Telemetry Raw packets
 

This is the latest recevied weather packets stored in our database for station/object N5ATR. If no packets are shown the sender has not sent any weather packets the latest 10 day(s).

<< 42 43 44 45 46 47 48 >>
Time Temp. Humidity Pressure Rain* Wind** Luminosity Snow
1788403079 21.11° C 40% 1021.5 hPa 0 mm - 0 W/m² -
1788402774 21.11° C 39% 1021.7 hPa 0 mm - 0 W/m² -
1788402474 20.56° C 39% 1021.3 hPa 0 mm - 0 W/m² -
1788402173 20.56° C 39% 1021.3 hPa 0 mm - 0 W/m² -
1788401873 21.11° C 39% 1021.4 hPa 0 mm - 0 W/m² -
1788401568 21.67° C 38% 1021.3 hPa 0 mm - 0 W/m² -
1788401268 21.67° C 38% 1021.5 hPa 0 mm - 0 W/m² -
1788400963 21.67° C 37% 1021.4 hPa 0 mm - 0 W/m² -
1788400658 22.22° C 37% 1021.4 hPa 0 mm - 0 W/m² -
1788400354 22.78° C 36% 1021.2 hPa 0 mm - 0 W/m² -
1788400049 22.78° C 36% 1021.3 hPa 0 mm - 0 W/m² -
1788399748 23.33° C 35% 1021.3 hPa 0 mm - 1 W/m² -
1788399444 23.33° C 35% 1021.4 hPa 0 mm - 1 W/m² -
1788399143 23.33° C 34% 1021.4 hPa 0 mm - 3 W/m² -
1788398842 23.89° C 34% 1021.4 hPa 0 mm - 5 W/m² -
1788398541 24.44° C 33% 1021.2 hPa 0 mm - 7 W/m² -
1788398236 25° C 32% 1021.5 hPa 0 mm - 9 W/m² -
1788397935 26.11° C 31% 1021.4 hPa 0 mm - 12 W/m² -
1788397632 26.67° C 30% 1021.4 hPa 0 mm - 15 W/m² -
1788397331 26.11° C 30% 1021.2 hPa 0 mm - 18 W/m² -
1788397030 26.67° C 30% 1021.3 hPa 0 mm - 18 W/m² -
1788396725 26.67° C 30% 1021.5 hPa 0 mm - 24 W/m² -
1788396421 26.67° C 30% 1021.3 hPa 0 mm - 25 W/m² -
1788396115 26.67° C 30% 1021.3 hPa 0 mm - 26 W/m² -
1788395811 26.11° C 31% 1021.4 hPa 0 mm - 28 W/m² -

* Rain latest hour (hover to see other rain measurements)
** Current wind speed in m/s (hover to see current wind gust speed)